{"data":{"norad_id":49505,"epoch":"2026-05-25T04:21:36.217152Z","epoch_age_seconds":59097,"freshness":"FRESH","line1":"1 49505U 21114A   26145.18166918 -.00000338  00000+0  00000+0 0  9993","line2":"2 49505   0.0318  69.5630 0000775 142.0972 226.6771  1.00273599 16587","mean_motion":1.00273599,"eccentricity":7.75e-5,"inclination_deg":0.0318,"raan_deg":69.563,"arg_perigee_deg":142.0972,"mean_anomaly_deg":226.6771,"bstar":0,"rev_number":1658,"period_min":1436.0709243118,"perigee_km":35782.81871149,"apogee_km":35789.354166123,"semimajor_km":42164.223438807,"source":"CELESTRAK","updated_at":"2026-05-25T13:38:14.103693Z"}}